"2016-04-30 00:00:00",1591131,3.487,52.09,6.437,1.409,4.462,99.75058,-1.335,-0.127,95.3,0,109.7,13.36,-0.59,14.1
"2016-04-30 00:00:30",1591132,3.478,46.93,6.566,1.409,4.066,99.74803,-1.342,-0.087,95.3,0,109.7,13.36,-0.59,8.9
"2016-04-30 00:01:00",1591133,3.074,45.5,7.05,1.262,3.89,99.74831,-1.341,-0.115,95.3,0,109.7,13.36,-0.59,7.5
"2016-04-30 00:01:30",1591134,3.249,45.74,7.827,1.428,4.653,99.74661,-1.345,-0.103,95.3,0,109.7,13.36,-0.60,7.7
"2016-04-30 00:02:00",1591135,2.506,36.46,6.441,1.101,3.023,99.74576,-1.348,-0.19,95.2,0,109.7,13.36,-0.60,358.5
"2016-04-30 00:02:30",1591136,2.907,42.79,7.793,1.382,4.62,99.74746,-1.343,-0.126,95.3,0,109.7,13.36,-0.60,4.8
"2016-04-30 00:03:00",1591137,2.82,42.11,6.668,1.375,4.095,99.74973,-1.338,-0.067,95.3,0,109.7,13.36,-0.59,4.1
"2016-04-30 00:03:30",1591138,3.264,43.17,7.39,1.349,4.563,99.74973,-1.338,-0.143,95.3,0,109.7,13.36,-0.59,5.2
"2016-04-30 00:04:00",1591139,2.821,37.78,7.412,1.289,4.147,99.75143,-1.333,-0.035,95.4,0,109.7,13.37,-0.59,359.8
"2016-04-30 00:04:30",1591140,3.152,43.67,6.906,1.435,4.254,99.75085,-1.335,-0.142,95.2,0,109.7,13.37,-0.59,5.7
"2016-04-30 00:05:00",1591141,2.294,42.2,7.796,1.276,3.141,99.75481,-1.325,-0.116,95.3,0,109.7,13.37,-0.58,4.2
"2016-04-30 00:05:30",1591142,3.139,46.92,7.433,1.344,3.415,99.75454,-1.325,-0.179,95.2,0,109.7,13.37,-0.58,8.9
"2016-04-30 00:06:00",1591143,3.366,47.78,6.957,1.3,4.343,99.75793,-1.317,-0.042,95.3,0,109.7,13.37,-0.57,9.8
"2016-04-30 00:06:30",1591144,3.451,49.17,7.068,1.388,4.6,99.75652,-1.32,-0.074,95.3,0,109.7,13.37,-0.57,11.2
"2016-04-30 00:07:00",1591145,3.495,50.48,6.573,1.356,4.732,99.7551,-1.324,-0.037,95.4,0,109.7,13.36,-0.58,12.5
"2016-04-30 00:07:30",1591146,3.578,47.09,6.907,1.357,3.883,99.7534,-1.328,-0.159,95.2,0,109.7,13.36,-0.58,9.1
"2016-04-30 00:08:00",1591147,3.374,43.31,8.88,1.234,3.517,99.75114,-1.334,-0.115,95.3,0,109.7,13.36,-0.59,5.3
"2016-04-30 00:08:30",1591148,3.748,39.83,8.46,1.44,4.155,99.75001,-1.337,-0.104,95.3,0,109.7,13.36,-0.59,1.8
"2016-04-30 00:09:00",1591149,3.302,39.73,6.896,1.461,4.534,99.75029,-1.336,-0.094,95.3,0,109.7,13.36,-0.59,1.7
"2016-04-30 00:09:30",1591150,3.056,43.49,8.2,1.632,4.354,99.75114,-1.334,-0.119,95.3,0,109.7,13.36,-0.59,5.5
"2016-04-30 00:10:00",1591151,2.909,45.9,7.183,1.178,3.826,99.75171,-1.333,-0.104,95.3,0,109.7,13.36,-0.59,7.9
"2016-04-30 00:10:30",1591152,2.92,45.21,5.748,1.166,3.338,99.74916,-1.339,-0.168,95.2,0,109.7,13.36,-0.59,7.2
"2016-04-30 00:11:00",1591153,3.751,48.44,6.95,1.382,4.358,99.75227,-1.331,-0.107,95.3,0,109.7,13.36,-0.58,10.4
"2016-04-30 00:11:30",1591154,3.585,47.91,7.627,1.397,4.141,99.75227,-1.331,-0.103,95.3,0,109.7,13.36,-0.58,9.9
"2016-04-30 00:12:00",1591155,2.8,43.03,8.24,1.451,4.169,99.75312,-1.329,-0.15,95.2,0,109.7,13.36,-0.58,5.0
"2016-04-30 00:12:30",1591156,3.876,47.33,8.03,1.357,4.557,99.7551,-1.324,-0.11,95.3,0,109.7,13.36,-0.58,9.3
"2016-04-30 00:13:00",1591157,3.528,50.45,6.506,1.348,4.48,99.75679,-1.32,-0.085,95.3,0,109.7,13.36,-0.57,12.5
"2016-04-30 00:13:30",1591158,2.982,48.22,5.799,1.176,3.289,99.75735,-1.318,-0.178,95.2,0,109.7,13.36,-0.57,10.2
"2016-04-30 00:14:00",1591159,3.218,50.65,7.116,1.232,3.405,99.7582,-1.316,-0.181,95.2,0,109.7,13.36,-0.57,12.7
"2016-04-30 00:14:30",1591160,4.009,54.9,6.562,1.333,5.63,99.75792,-1.317,-0.039,95.3,0,109.7,13.36,-0.57,16.9
"2016-04-30 00:15:00",1591161,3.481,49.47,7.306,1.366,4.532,99.75877,-1.315,-0.088,95.3,0,109.7,13.36,-0.57,11.5
"2016-04-30 00:15:30",1591162,3.498,48.93,7.163,1.389,4.541,99.75877,-1.315,-0.107,95.3,0,109.7,13.36,-0.57,10.9
"2016-04-30 00:16:00",1591163,3.196,51.24,6.877,1.377,4.034,99.75623,-1.321,-0.147,95.2,0,109.7,13.36,-0.57,13.2
"2016-04-30 00:16:30",1591164,3.287,50.66,6.418,1.354,4.024,99.75594,-1.322,-0.141,95.2,0,109.7,13.37,-0.57,12.7
"2016-04-30 00:17:00",1591165,3.395,51.95,7.037,1.413,4.201,99.75537,-1.323,-0.111,95.3,0,109.7,13.36,-0.58,14.0
"2016-04-30 00:17:30",1591166,3.628,53.75,6.916,1.312,4.526,99.75481,-1.325,-0.086,95.3,0,109.7,13.37,-0.58,15.8
"2016-04-30 00:18:00",1591167,4.251,54.92,7.608,1.309,5.593,99.75452,-1.325,-0.036,95.3,0,109.7,13.37,-0.58,16.9
"2016-04-30 00:18:30",1591168,3.815,52.05,6.01,1.393,4.635,99.75311,-1.329,-0.134,95.2,0,109.7,13.37,-0.58,14.0
"2016-04-30 00:19:00",1591169,3.5,52.81,6.52,1.353,4.326,99.75395,-1.327,-0.125,95.2,0,109.7,13.37,-0.58,14.8
"2016-04-30 00:19:30",1591170,3.304,54.27,7.452,1.303,3.755,99.75367,-1.327,-0.087,95.3,0,109.7,13.37,-0.58,16.3
"2016-04-30 00:20:00",1591171,4.087,60.27,6.772,1.317,5.316,99.75367,-1.327,-0.129,95.2,0,109.7,13.37,-0.58,22.3
"2016-04-30 00:20:30",1591172,2.984,54.96,6.212,1.29,3.571,99.75367,-1.327,-0.172,95.2,0,109.7,13.37,-0.58,17.0
"2016-04-30 00:21:00",1591173,3.818,54.98,6.318,1.296,5.197,99.75367,-1.327,-0.068,95.3,0,109.7,13.37,-0.58,17.0
"2016-04-30 00:21:30",1591174,2.849,47.23,6.304,1.21,3.025,99.75367,-1.327,-0.161,95.2,0,109.7,13.37,-0.58,9.2
"2016-04-30 00:22:00",1591175,3.492,49.63,7.025,1.381,4.549,99.75367,-1.327,-0.094,95.3,0,109.7,13.37,-0.58,11.6
"2016-04-30 00:22:30",1591176,2.783,48.2,6.692,1.349,3.486,99.7548,-1.325,-0.201,95.2,0,109.6,13.37,-0.58,10.2
"2016-04-30 00:23:00",1591177,2.876,47.43,6.581,1.233,4.281,99.75424,-1.326,-0.149,95.2,0,109.7,13.37,-0.58,9.4
"2016-04-30 00:23:30",1591178,2.076,39.26,7.652,1.357,3.312,99.75395,-1.327,-0.169,95.2,0,109.6,13.37,-0.58,1.3
"2016-04-30 00:24:00",1591179,1.798,36.35,6.095,1.22,3.349,99.75452,-1.325,-0.162,95.2,0,109.7,13.37,-0.58,358.4
"2016-04-30 00:24:30",1591180,2.33,47.54,6.552,1.33,3.848,99.75395,-1.327,-0.128,95.2,0,109.7,13.37,-0.58,9.5
"2016-04-30 00:25:00",1591181,1.881,44.07,5.505,0.954,2.061,99.75537,-1.323,-0.302,95.1,0,109.7,13.37,-0.58,6.1
"2016-04-30 00:25:30",1591182,2.993,53.06,7.278,1.371,4.066,99.75509,-1.324,-0.097,95.3,0,109.7,13.36,-0.58,15.1
"2016-04-30 00:26:00",1591183,3.403,53.73,6.799,1.357,5.01,99.75395,-1.327,-0.044,95.3,0,109.7,13.36,-0.58,15.7
"2016-04-30 00:26:30",1591184,2.893,49.42,6.636,1.367,4.332,99.75565,-1.322,-0.125,95.2,0,109.7,13.36,-0.58,11.4
"2016-04-30 00:27:00",1591185,2.721,52.73,6.227,1.329,4.486,99.75649,-1.32,-0.133,95.2,0,109.7,13.36,-0.57,14.7
"2016-04-30 00:27:30",1591186,2.199,52.89,6.441,1.196,3.003,99.75762,-1.317,-0.168,95.2,0,109.7,13.36,-0.57,14.9
"2016-04-30 00:28:00",1591187,2.18,45.35,5.847,1.212,2.724,99.75961,-1.312,-0.252,95.1,0,109.7,13.36,-0.56,7.3
"2016-04-30 00:28:30",1591188,2.741,47.08,7.859,1.442,4.194,99.75876,-1.315,-0.095,95.2,0,109.7,13.36,-0.57,9.1
"2016-04-30 00:29:00",1591189,3.053,51.09,6.001,1.384,3.86,99.75876,-1.315,-0.099,95.2,0,109.7,13.36,-0.57,13.1
"2016-04-30 00:29:30",1591190,3.03,53.57,7.556,1.369,4.561,99.75706,-1.319,-0.121,95.2,0,109.7,13.36,-0.57,15.6
"2016-04-30 00:30:00",1591191,3.959,51.2,6.713,1.343,4.441,99.75706,-1.319,-0.12,95.2,0,109.7,13.36,-0.57,13.2
"2016-04-30 00:30:30",1591192,3.434,47.88,6.395,1.227,3.155,99.75847,-1.315,-0.197,95.2,0,109.7,13.36,-0.57,9.9
"2016-04-30 00:31:00",1591193,3.612,50.21,6.911,1.354,4.108,99.75791,-1.317,-0.099,95.2,0,109.6,13.36,-0.57,12.2
"2016-04-30 00:31:30",1591194,3.837,55.4,7.031,1.372,4.96,99.75791,-1.317,-0.126,95.2,0,109.7,13.36,-0.57,17.4
"2016-04-30 00:32:00",1591195,3.323,54.44,6.413,1.28,4.013,99.75876,-1.315,-0.108,95.2,0,109.7,13.36,-0.57,16.4
"2016-04-30 00:32:30",1591196,3.749,56.27,6.975,1.362,5.189,99.75819,-1.316,0.006,95.3,0,109.6,13.37,-0.57,18.3
"2016-04-30 00:33:00",1591197,3.596,55.76,6.879,1.36,4.57,99.75988,-1.312,-0.179,95.2,0,109.7,13.37,-0.56,17.8
"2016-04-30 00:33:30",1591198,2.428,47.42,4.316,0.752,2.667,99.75478,-1.325,-0.171,95.2,0,109.6,13.37,-0.58,9.4
"2016-04-30 00:34:00",1591199,3.421,51,7.11,1.357,4.285,99.75082,-1.335,-0.185,95.2,0,109.6,13.37,-0.59,13.0
"2016-04-30 00:34:30",1591200,3.179,50.58,6.916,1.332,4.058,99.746,-1.347,-0.076,95.3,0,109.6,13.37,-0.60,12.6
"2016-04-30 00:35:00",1591201,3.625,51.31,7.208,1.367,4.775,99.74459,-1.351,-0.13,95.2,0,109.6,13.37,-0.60,13.3
"2016-04-30 00:35:30",1591202,3.773,54.63,7.1,1.362,4.972,99.74487,-1.35,-0.12,95.2,0,109.6,13.37,-0.60,16.6
"2016-04-30 00:36:00",1591203,3.062,52.01,6.582,1.284,3.425,99.74459,-1.351,-0.181,95.2,0,109.6,13.37,-0.60,14.0
"2016-04-30 00:36:30",1591204,2.776,52.68,5.545,1.164,3.329,99.7443,-1.351,-0.177,95.2,0,109.6,13.37,-0.60,14.7
"2016-04-30 00:37:00",1591205,3.602,57.24,6.912,1.411,4.799,99.74147,-1.359,-0.169,95.2,0,109.6,13.37,-0.61,19.2
"2016-04-30 00:37:30",1591206,3.256,51.85,6.807,1.366,3.98,99.73921,-1.364,-0.186,95.2,0,109.7,13.37,-0.62,13.8
"2016-04-30 00:38:00",1591207,3.628,58.89,7.613,1.314,5.35,99.73695,-1.37,-0.123,95.2,0,109.6,13.37,-0.62,20.9
"2016-04-30 00:38:30",1591208,3.18,56.89,8.06,1.312,4.295,99.73695,-1.37,-0.177,95.1,0,109.7,13.37,-0.62,18.9
"2016-04-30 00:39:00",1591209,3.008,60.15,7.629,1.404,4.307,99.73637,-1.372,-0.197,95.2,0,109.6,13.37,-0.62,22.2
"2016-04-30 00:39:30",1591210,2.917,58.34,7.305,1.321,3.627,99.73722,-1.369,-0.229,95.1,0,109.6,13.37,-0.62,20.3
"2016-04-30 00:40:00",1591211,3.297,56.43,7.445,1.332,4.519,99.74034,-1.361,-0.119,95.2,0,109.7,13.37,-0.61,18.4
"2016-04-30 00:40:30",1591212,3.036,56.47,6.636,1.394,4.16,99.73864,-1.366,-0.239,95.1,0,109.6,13.37,-0.62,18.5
"2016-04-30 00:41:00",1591213,2.876,57.93,8.28,1.338,4.576,99.74062,-1.361,-0.149,95.2,0,109.6,13.37,-0.61,19.9
"2016-04-30 00:41:30",1591214,2.72,53.96,7.732,1.337,4.033,99.74204,-1.357,-0.116,95.2,0,109.6,13.38,-0.61,16.0
"2016-04-30 00:42:00",1591215,2.181,50.84,5.813,0.994,2.666,99.74147,-1.359,-0.235,95.1,0,109.6,13.38,-0.61,12.8
"2016-04-30 00:42:30",1591216,3.022,57.49,7.12,1.352,3.796,99.74317,-1.354,-0.213,95.1,0,109.6,13.37,-0.61,19.5
"2016-04-30 00:43:00",1591217,2.695,60.28,7.16,1.335,4.133,99.7443,-1.351,-0.063,95.3,0,109.6,13.38,-0.60,22.3
"2016-04-30 00:43:30",1591218,2.905,61.16,6.644,1.367,4.308,99.7443,-1.351,-0.196,95.2,0,109.6,13.37,-0.60,23.2
"2016-04-30 00:44:00",1591219,2.812,58.29,7.205,1.3,4.273,99.74515,-1.349,-0.145,95.2,0,109.6,13.37,-0.60,20.3
"2016-04-30 00:44:30",1591220,2.666,57.11,6.428,1.32,3.724,99.74515,-1.349,-0.118,95.2,0,109.6,13.36,-0.60,19.1
"2016-04-30 00:45:00",1591221,2.035,54.38,4.35,0.84,2.059,99.74515,-1.349,-0.289,95.1,0,109.6,13.36,-0.60,16.4
"2016-04-30 00:45:30",1591222,3.246,62.96,8.21,1.344,4.599,99.74515,-1.349,-0.159,95.2,0,109.6,13.36,-0.60,25.0
"2016-04-30 00:46:00",1591223,2.479,66.71,7.484,1.346,4.112,99.74515,-1.349,-0.136,95.2,0,109.6,13.36,-0.60,28.7
"2016-04-30 00:46:30",1591224,2.853,68.16,6.449,1.402,4.625,99.74515,-1.349,-0.174,95.1,0,109.6,13.36,-0.60,30.2
"2016-04-30 00:47:00",1591225,2.264,59.92,5.939,1.119,3.295,99.74515,-1.349,-0.189,95.1,0,109.6,13.37,-0.60,21.9
"2016-04-30 00:47:30",1591226,3.109,65.51,7.195,1.359,4.224,99.74515,-1.349,-0.145,95.1,0,109.6,13.36,-0.60,27.5
"2016-04-30 00:48:00",1591227,1.921,60.04,4.359,0.795,2.142,99.74515,-1.349,-0.239,95.1,0,109.6,13.37,-0.60,22.0
"2016-04-30 00:48:30",1591228,3.089,61.63,6.563,1.404,4.26,99.74515,-1.349,-0.145,95.2,0,109.6,13.37,-0.60,23.6
"2016-04-30 00:49:00",1591229,2.591,59.96,6.701,1.205,3.415,99.74515,-1.349,-0.162,95.2,0,109.6,13.38,-0.60,22.0
"2016-04-30 00:49:30",1591230,3.474,67.8,5.621,1.36,4.368,99.74544,-1.348,-0.207,95.1,0,109.6,13.38,-0.60,29.8
"2016-04-30 00:50:00",1591231,2.707,69.07,6.055,1.123,3.583,99.74515,-1.349,-0.124,95.2,0,109.6,13.38,-0.60,31.1
"2016-04-30 00:50:30",1591232,3.438,71.5,7.2,1.391,4.574,99.74515,-1.349,-0.193,95.1,0,109.6,13.38,-0.60,33.5
"2016-04-30 00:51:00",1591233,2.909,73.12,6.732,1.359,4.204,99.74515,-1.349,-0.137,95.2,0,109.6,13.38,-0.60,35.1
"2016-04-30 00:51:30",1591234,3.412,67.91,8.21,1.346,3.996,99.74544,-1.348,-0.179,95.1,0,109.6,13.38,-0.60,29.9
"2016-04-30 00:52:00",1591235,3.016,65.7,6.1,1.287,3.425,99.74544,-1.348,-0.176,95.1,0,109.6,13.38,-0.60,27.7
"2016-04-30 00:52:30",1591236,2.666,67.85,10.54,1.261,3.563,99.74487,-1.35,-0.177,95.1,0,109.6,13.38,-0.60,29.8
"2016-04-30 00:53:00",1591237,3.582,70.12,8.21,1.37,5.231,99.74544,-1.348,-0.114,95.2,0,109.6,13.38,-0.60,32.1
"2016-04-30 00:53:30",1591238,2.764,62.14,8.34,1.223,3.778,99.74544,-1.348,-0.126,95.2,0,109.6,13.38,-0.60,24.1
"2016-04-30 00:54:00",1591239,2.92,65.66,8.86,1.427,3.967,99.74515,-1.349,-0.098,95.2,0,109.6,13.38,-0.60,27.7
"2016-04-30 00:54:30",1591240,2.9,55.81,6.744,1.322,3.43,99.74572,-1.348,-0.197,95.1,0,109.6,13.38,-0.60,17.8
"2016-04-30 00:55:00",1591241,3.235,60.56,6.923,1.383,4.745,99.74515,-1.349,-0.111,95.2,0,109.6,13.38,-0.60,22.6
"2016-04-30 00:55:30",1591242,3.008,60.36,10.19,1.34,4.376,99.74544,-1.348,-0.167,95.1,0,109.6,13.38,-0.60,22.4
"2016-04-30 00:56:00",1591243,2.689,68.59,6.622,1.324,4.589,99.74544,-1.348,-0.168,95.1,0,109.6,13.38,-0.60,30.6
"2016-04-30 00:56:30",1591244,2.176,52.82,7.662,1.166,3.162,99.74515,-1.349,-0.214,95.1,0,109.6,13.38,-0.60,14.8
"2016-04-30 00:57:00",1591245,3.264,51.51,7.762,1.384,3.863,99.74515,-1.349,-0.168,95.1,0,109.6,13.38,-0.60,13.5
"2016-04-30 00:57:30",1591246,2.661,48.54,7.327,1.234,3.129,99.74515,-1.349,-0.185,95.1,0,109.6,13.38,-0.60,10.5
"2016-04-30 00:58:00",1591247,2.686,53.02,6.755,1.283,3.879,99.74544,-1.348,-0.179,95.1,0,109.6,13.38,-0.60,15.0
"2016-04-30 00:58:30",1591248,3.417,56.72,6.343,1.291,5.143,99.74572,-1.348,-0.059,95.2,0,109.6,13.37,-0.60,18.7
"2016-04-30 00:59:00",1591249,2.781,59.15,6.835,1.362,4.036,99.746,-1.347,-0.178,95.1,0,109.6,13.38,-0.60,21.2
"2016-04-30 00:59:30",1591250,2.479,55.9,8.41,1.211,3.226,99.74742,-1.343,-0.187,95.1,0,109.6,13.37,-0.60,17.9
"2016-04-30 01:00:00",1591251,2.63,45.47,7.565,1.36,3.904,99.74685,-1.345,-0.118,95.2,0,109.6,13.37,-0.60,7.5
"2016-04-30 01:00:30",1591252,3.019,57.12,7.333,1.409,4.389,99.74827,-1.341,-0.093,95.2,0,109.6,13.37,-0.59,19.1
"2016-04-30 01:01:00",1591253,2.95,53.58,7.884,1.403,4.299,99.75025,-1.336,-0.155,95.1,0,109.6,13.37,-0.59,15.6
"2016-04-30 01:01:30",1591254,2.945,51.02,6.336,1.391,4.733,99.7528,-1.33,0.001,95.3,0,109.6,13.37,-0.58,13.0
"2016-04-30 01:02:00",1591255,3.032,45.03,7.333,1.323,3.858,99.75393,-1.327,-0.185,95.1,0,109.6,13.37,-0.58,7.0
"2016-04-30 01:02:30",1591256,3.226,45.39,7.935,1.405,4.425,99.7579,-1.317,-0.162,95.1,0,109.6,13.37,-0.57,7.4
"2016-04-30 01:03:00",1591257,2.435,42.43,6.963,1.358,3.299,99.75931,-1.313,-0.147,95.1,0,109.6,13.37,-0.57,4.4
"2016-04-30 01:03:30",1591258,3.393,50.59,6.784,1.386,5.686,99.75931,-1.313,-0.003,95.3,0,109.6,13.37,-0.57,12.6
"2016-04-30 01:04:00",1591259,3.019,50.38,7.852,1.366,4.139,99.76016,-1.311,-0.161,95.1,0,109.6,13.37,-0.56,12.4
"2016-04-30 01:04:30",1591260,2.436,45.55,6.557,1.2,3.448,99.76101,-1.309,-0.087,95.2,0,109.6,13.37,-0.56,7.5
"2016-04-30 01:05:00",1591261,3.288,52.21,7.637,1.356,4.495,99.76157,-1.307,-0.163,95.1,0,109.6,13.37,-0.56,14.2
"2016-04-30 01:05:30",1591262,2.507,51.35,6.054,1.293,3.534,99.76157,-1.307,-0.108,95.2,0,109.6,13.38,-0.56,13.3
"2016-04-30 01:06:00",1591263,2.556,45.86,6.245,1.198,3.144,99.76214,-1.306,-0.14,95.2,0,109.6,13.38,-0.56,7.9
"2016-04-30 01:06:30",1591264,3.006,51.22,7.604,1.399,4.708,99.76214,-1.306,-0.035,95.2,0,109.6,13.38,-0.56,13.2
"2016-04-30 01:07:00",1591265,2.155,52.79,8.49,1.396,3.805,99.76214,-1.306,-0.163,95.1,0,109.6,13.38,-0.56,14.8
"2016-04-30 01:07:30",1591266,1.989,41.04,9.08,1.323,3.646,99.76214,-1.306,-0.098,95.2,0,109.6,13.38,-0.56,3.0
"2016-04-30 01:08:00",1591267,2.791,50.36,6.914,1.336,4.27,99.76214,-1.306,-0.129,95.1,0,109.6,13.38,-0.56,12.4
"2016-04-30 01:08:30",1591268,1.974,43.71,6.301,1.116,2.828,99.76214,-1.306,-0.258,95,0,109.6,13.38,-0.56,5.7
"2016-04-30 01:09:00",1591269,2.596,40.75,5.809,1.254,4.032,99.76243,-1.305,-0.072,95.2,0,109.6,13.38,-0.56,2.8
"2016-04-30 01:09:30",1591270,2.7,43.33,6.763,1.32,4.88,99.76214,-1.306,-0.04,95.3,0,109.6,13.38,-0.56,5.3
"2016-04-30 01:10:00",1591271,2.881,45.72,8.21,1.537,4.307,99.76243,-1.305,-0.139,95.1,0,109.6,13.38,-0.56,7.7
"2016-04-30 01:10:30",1591272,3.25,49.42,6.741,1.37,4.582,99.76186,-1.307,-0.092,95.2,0,109.6,13.38,-0.56,11.4
"2016-04-30 01:11:00",1591273,3.081,46.05,6.573,1.329,4.335,99.76243,-1.305,-0.074,95.2,0,109.6,13.38,-0.56,8.0
"2016-04-30 01:11:30",1591274,2.809,42.4,7.105,1.385,4.181,99.7627,-1.304,-0.196,95.1,0,109.6,13.38,-0.56,4.4
"2016-04-30 01:12:00",1591275,3.018,47.04,8.58,1.467,4.408,99.76214,-1.306,-0.096,95.2,0,109.6,13.38,-0.56,9.0
"2016-04-30 01:12:30",1591276,3.156,49.25,5.882,1.405,4.494,99.76186,-1.307,-0.095,95.2,0,109.6,13.38,-0.56,11.2
"2016-04-30 01:13:00",1591277,3.307,47.16,6.057,1.301,4.706,99.7627,-1.304,-0.089,95.2,0,109.6,13.38,-0.56,9.2
"2016-04-30 01:13:30",1591278,3.069,46.93,7.539,1.398,4.062,99.76214,-1.306,-0.092,95.2,0,109.6,13.38,-0.56,8.9
"2016-04-30 01:14:00",1591279,2.985,49.9,7.648,1.313,3.825,99.76157,-1.307,-0.128,95.2,0,109.6,13.38,-0.56,11.9
"2016-04-30 01:14:30",1591280,3.41,52.42,7.114,1.379,4.544,99.76242,-1.305,-0.105,95.2,0,109.6,13.38,-0.56,14.4
"2016-04-30 01:15:00",1591281,3.505,54.38,6.799,1.346,4.862,99.76015,-1.311,-0.137,95.2,0,109.6,13.37,-0.56,16.4
"2016-04-30 01:15:30",1591282,2.678,48.45,6.367,1.243,3.499,99.75902,-1.314,-0.143,95.2,0,109.6,13.38,-0.57,10.5
"2016-04-30 01:16:00",1591283,3.68,53.09,7.78,1.308,5.679,99.75874,-1.315,-0.061,95.2,0,109.6,13.38,-0.57,15.1
"2016-04-30 01:16:30",1591284,2.836,48.4,7.442,1.294,3.718,99.75392,-1.327,-0.099,95.2,0,109.6,13.38,-0.58,10.4
"2016-04-30 01:17:00",1591285,3.12,51.67,6.952,1.32,3.705,99.75477,-1.325,-0.173,95.1,0,109.6,13.38,-0.58,13.7
"2016-04-30 01:17:30",1591286,3.358,47.5,8.57,1.407,4.195,99.75279,-1.33,-0.149,95.1,0,109.6,13.38,-0.58,9.5
"2016-04-30 01:18:00",1591287,3.629,46.58,5.728,1.26,3.988,99.75222,-1.331,-0.117,95.2,0,109.6,13.38,-0.58,8.6
"2016-04-30 01:18:30",1591288,4.209,52.84,6.848,1.335,5.125,99.74967,-1.338,-0.109,95.2,0,109.6,13.37,-0.59,14.8
"2016-04-30 01:19:00",1591289,3.647,48.52,7.156,1.318,4.416,99.74798,-1.342,-0.113,95.2,0,109.6,13.37,-0.59,10.5
"2016-04-30 01:19:30",1591290,3.957,47.98,6.981,1.349,4.331,99.74826,-1.341,-0.101,95.2,0,109.6,13.37,-0.59,10.0
"2016-04-30 01:20:00",1591291,3.711,44.51,7.023,1.358,3.919,99.75108,-1.334,-0.178,95.1,0,109.6,13.37,-0.59,6.5
"2016-04-30 01:20:30",1591292,4.071,47.6,6.55,1.317,5.149,99.74995,-1.337,-0.037,95.3,0,109.6,13.37,-0.59,9.6
"2016-04-30 01:21:00",1591293,3.6,44.34,6.914,1.382,4.887,99.73891,-1.365,-0.162,95.2,0,109.6,13.37,-0.62,6.3
"2016-04-30 01:21:30",1591294,3.61,44.25,6.953,1.36,5.293,99.73269,-1.381,-0.124,95.2,0,109.6,13.37,-0.63,6.2
"2016-04-30 01:22:00",1591295,2.569,37.79,6.478,1.155,3.308,99.73523,-1.375,-0.169,95.2,0,109.6,13.38,-0.63,359.8
"2016-04-30 01:22:30",1591296,3.025,41.03,6.659,1.319,3.736,99.73608,-1.372,-0.22,95.1,0,109.6,13.38,-0.63,3.0
"2016-04-30 01:23:00",1591297,3.698,44.69,7.39,1.383,4.646,99.73748,-1.369,-0.143,95.2,0,109.6,13.38,-0.62,6.7
"2016-04-30 01:23:30",1591298,4.32,47.99,6.79,1.255,5.519,99.73522,-1.375,-0.119,95.2,0,109.6,13.38,-0.63,10.0
"2016-04-30 01:24:00",1591299,3.618,44.95,7.312,1.358,4.655,99.73182,-1.383,-0.167,95.2,0,109.6,13.38,-0.64,7.0
"2016-04-30 01:24:30",1591300,3.778,45.64,6.851,1.341,5,99.72644,-1.397,-0.101,95.2,0,109.6,13.38,-0.65,7.6
"2016-04-30 01:25:00",1591301,3.665,45.28,7.618,1.424,4.678,99.72332,-1.405,-0.219,95.1,0,109.6,13.38,-0.66,7.3
"2016-04-30 01:25:30",1591302,3.939,46.67,6.652,1.225,4.89,99.72304,-1.406,-0.213,95.2,0,109.6,13.38,-0.66,8.7
"2016-04-30 01:26:00",1591303,3.353,42.81,7.057,1.441,4.475,99.72021,-1.413,-0.134,95.2,0,109.6,13.38,-0.67,4.8
"2016-04-30 01:26:30",1591304,3.753,44.92,7.38,1.434,4.387,99.71964,-1.414,-0.239,95.1,0,109.6,13.38,-0.67,6.9
"2016-04-30 01:27:00",1591305,3.591,44.49,7.013,1.348,4.903,99.72021,-1.413,-0.157,95.3,0,109.6,13.38,-0.67,6.5
"2016-04-30 01:27:30",1591306,3.147,42.22,6.683,1.316,3.967,99.72218,-1.408,-0.217,95.2,0,109.6,13.38,-0.66,4.2
"2016-04-30 01:28:00",1591307,3.226,41.64,7.315,1.35,4.134,99.7236,-1.404,-0.278,95.1,0,109.6,13.38,-0.66,3.6
"2016-04-30 01:28:30",1591308,3.675,42.43,7.254,1.318,4.461,99.72105,-1.411,-0.191,95.2,0,109.6,13.38,-0.66,4.4
"2016-04-30 01:29:00",1591309,3.209,42.32,7.289,1.374,4.372,99.71483,-1.427,-0.174,95.2,0,109.6,13.38,-0.68,4.3
"2016-04-30 01:29:30",1591310,2.815,40.23,6.76,1.333,3.785,99.71227,-1.433,-0.261,95.1,0,109.6,13.38,-0.69,2.2
"2016-04-30 01:30:00",1591311,2.678,39.6,7.153,1.283,4.235,99.70915,-1.441,-0.208,95.2,0,109.6,13.38,-0.69,1.6
"2016-04-30 01:30:30",1591312,3.058,40.13,6.856,1.363,4.137,99.70887,-1.442,-0.278,95.1,0,109.6,13.38,-0.69,2.1
"2016-04-30 01:31:00",1591313,2.431,37.77,6.491,1.236,3.153,99.70859,-1.442,-0.245,95.2,0,109.6,13.38,-0.70,359.8
"2016-04-30 01:31:30",1591314,2.955,41.23,7.313,1.39,4.169,99.7083,-1.443,-0.204,95.2,0,109.6,13.38,-0.70,3.2
"2016-04-30 01:32:00",1591315,2.664,38.59,6.603,1.309,3.954,99.70689,-1.447,-0.271,95.1,0,109.6,13.38,-0.70,0.6
"2016-04-30 01:32:30",1591316,2.878,41.1,6.926,1.34,4.146,99.70774,-1.445,-0.257,95.2,0,109.6,13.38,-0.70,3.1
"2016-04-30 01:33:00",1591317,3.012,42.5,7.133,1.319,4.327,99.70802,-1.444,-0.285,95.1,0,109.6,13.38,-0.70,4.5
"2016-04-30 01:33:30",1591318,2.106,38.65,6.316,1.21,2.96,99.7035,-1.455,-0.333,95.1,0,109.6,13.38,-0.71,0.7
"2016-04-30 01:34:00",1591319,2.878,42.14,7.361,1.348,4.085,99.70406,-1.454,-0.319,95.1,0,109.6,13.38,-0.71,4.1
"2016-04-30 01:34:30",1591320,2.74,41.58,7.144,1.372,4.701,99.69669,-1.473,-0.209,95.2,0,109.6,13.38,-0.73,3.6
"2016-04-30 01:35:00",1591321,2.657,40.18,7.624,1.389,3.967,99.69018,-1.489,-0.324,95.1,0,109.6,13.38,-0.74,2.2
"2016-04-30 01:35:30",1591322,2.581,41.22,7.58,1.355,4.689,99.68508,-1.502,-0.218,95.3,0,109.6,13.38,-0.76,3.2
"2016-04-30 01:36:00",1591323,2.491,40.7,7.318,1.418,3.791,99.68536,-1.502,-0.349,95.1,0,109.6,13.38,-0.75,2.7
"2016-04-30 01:36:30",1591324,1.919,38.07,6.194,1.135,2.845,99.67885,-1.518,-0.341,95.1,0,109.6,13.38,-0.77,0.1
"2016-04-30 01:37:00",1591325,2.256,40.34,7.503,1.312,3.515,99.67715,-1.523,-0.294,95.2,0,109.6,13.38,-0.78,2.3
"2016-04-30 01:37:30",1591326,2.592,40.91,7.311,1.387,3.926,99.67574,-1.526,-0.306,95.2,0,109.6,13.38,-0.78,2.9
"2016-04-30 01:38:00",1591327,2.975,43.01,7.224,1.325,4.625,99.67574,-1.526,-0.325,95.2,0,109.6,13.38,-0.78,5.0
"2016-04-30 01:38:30",1591328,2.31,40.46,6.844,1.246,3.465,99.6763,-1.525,-0.308,95.2,0,109.6,13.38,-0.78,2.5
"2016-04-30 01:39:00",1591329,2.939,42.83,6.51,1.331,4.29,99.67375,-1.531,-0.282,95.2,0,109.6,13.38,-0.78,4.8
"2016-04-30 01:39:30",1591330,2.668,41.29,5.083,1.052,2.45,99.67602,-1.525,-0.439,95.1,0,109.6,13.38,-0.78,3.3
"2016-04-30 01:40:00",1591331,3.057,43.9,7.01,1.343,3.998,99.67742,-1.522,-0.285,95.2,0,109.6,13.38,-0.78,5.9
"2016-04-30 01:40:30",1591332,3.399,46.71,6.867,1.359,5.112,99.67658,-1.524,-0.274,95.2,0,109.6,13.38,-0.78,8.7
"2016-04-30 01:41:00",1591333,3.074,45.04,7.273,1.334,4.636,99.67827,-1.52,-0.254,95.3,0,109.6,13.38,-0.77,7.0
"2016-04-30 01:41:30",1591334,2.962,45.14,6.906,1.323,4.513,99.67742,-1.522,-0.256,95.3,0,109.6,13.38,-0.78,7.1
"2016-04-30 01:42:00",1591335,3.189,46.05,6.921,1.332,4.04,99.67827,-1.52,-0.376,95.1,0,109.6,13.38,-0.77,8.0
"2016-04-30 01:42:30",1591336,2.577,43.57,5.96,1.169,3.162,99.67799,-1.52,-0.361,95.2,0,109.6,13.39,-0.77,5.6
"2016-04-30 01:43:00",1591337,3.332,47.64,6.949,1.366,4.586,99.67799,-1.52,-0.285,95.2,0,109.6,13.38,-0.77,9.6
"2016-04-30 01:43:30",1591338,3.075,47.03,7.231,1.379,4.488,99.67771,-1.521,-0.273,95.3,0,109.6,13.39,-0.77,9.0
"2016-04-30 01:44:00",1591339,3.483,49.74,7.064,1.334,4.902,99.67658,-1.524,-0.313,95.2,0,109.6,13.38,-0.78,11.7
"2016-04-30 01:44:30",1591340,3.035,47.19,6.852,1.353,3.918,99.67658,-1.524,-0.346,95.2,0,109.6,13.38,-0.78,9.2
"2016-04-30 01:45:00",1591341,2.492,47.05,6.305,1.169,3.279,99.67827,-1.52,-0.315,95.2,0,109.6,13.38,-0.77,9.0
"2016-04-30 01:45:30",1591342,2.513,47.05,6.233,1.172,3.22,99.67884,-1.518,-0.328,95.2,0,109.6,13.39,-0.77,9.0
"2016-04-30 01:46:00",1591343,3.217,51.63,7.081,1.339,4.304,99.67827,-1.52,-0.342,95.2,0,109.6,13.38,-0.77,13.6
"2016-04-30 01:46:30",1591344,2.922,50.72,6.711,1.331,3.821,99.68025,-1.515,-0.336,95.2,0,109.6,13.39,-0.77,12.7